星链-11224 (STARLINK-11224)

导读 | 豆包AI

STARLINK-11224是美国于2024年7月28日发射的Starlink互联网通信卫星,属于SpaceX星链星座。星链计划旨在构建全球卫星互联网,为偏远地区、海上等场景提供高速网络接入服务。该卫星入轨后将参与星链组网,拓展低轨星座覆盖范围,进一步推动全球宽带通信网络建设,增强星链系统服务能力。

Basic Information
目录编号:
60304
目录名称:
STARLINK-11224
国际标识:
2024-133D
轨道中心:
EARTH
卫星名称:
星链-11224 (STARLINK-11224)
卫星全名:
星链-11224 (STARLINK-11224)
卫星状态:
在轨 (已飞行595 天)
发射日期:
2024-07-28 UTC
国别 :
美国 (US)
星等 :
--
Orbit Information
数据来源 国际轨道数据
星历时间: 2026-03-15T04:21:14+0800
20小时前
查看轨道信息
半长轴: 6737.876km
偏心率: 0.0001212
轨道倾角: 53.158°
近地点辐角 63.486°
升交点赤经 120.844°
平近点角 296.628°
近地点: 358.922km
远地点: 360.556km
周期: 91.737分钟
每日圈数: 15.69706
Detailed Information
卫星平台:
Starlink v2.0 mini
运营商:
太空探索技术公司
运营商所在国:
美国
制造商(研发单位):
太空探索技术公司
制造商所在国:
美国
使用方式:
暂无
Satellite Introduction
星链(Starlink)计划是由太空探索技术公司(SpaceX)提出的一个巨型低轨卫星互联网星座项目,计划在2019年至2024年间在太空搭建由约1.2万颗卫星组成的“星链”网络,其中1584颗将部署在地球上空550千米处的近地轨道,并从2020年开始工作。该卫星仍在工作。
2D Orbit Map
3D Orbit Map
Orbit Altitude Analysis Chart
Orbit Inclination Analysis Chart
Orbit Comprehensive Analysis Chart
View Comprehensive Chart